Weather observations for the past three days for
Cushing, Cushing Municipal Airport
Imperial (Metric)
Date Time (cdt) Wind (mph) Vis. (mi.) Weather Sky Cond. Temperature (ºF) Relative Humidity Wind Chill (°F) Heat Index (°F) Pressure Precipitation (in)
Air Dwpt 6 hour altimeter (in) sea level (mb) 1 hr 3 hr 6 hr
Max. Min.
15 12:15 S 15 G 22 10.00 Fair CLR 93.9 68.5 44% 99 29.91 0.0
15 11:55 S 14 G 17 10.00 Fair CLR 92.5 68.2 45% 97 29.92 0.0
15 11:35 S 13 10.00 Fair CLR 91.9 67.8 45% 96 29.92 0.0
15 11:15 S 16 10.00 Fair CLR 90.7 67.5 47% 94 29.93 0.0
15 10:55 SW 13 G 17 10.00 Fair CLR 89.6 67.3 48% 93 29.94 0.0
15 10:35 SW 13 10.00 Fair CLR 88.3 66.7 49% 91 29.94 0.0
15 10:15 S 12 10.00 Fair CLR 87.6 66.7 50% 90 29.95 0.0
15 09:55 S 13 G 20 10.00 Fair CLR 86.5 66.4 51% 89 29.95 0.0
15 09:35 S 13 G 18 10.00 Fair CLR 85.1 66.2 53% 87 29.95 0.0
15 09:15 S 13 G 18 10.00 Fair CLR 84.4 66.4 55% 87 29.96 0.0
15 08:55 S 16 G 20 10.00 Fair CLR 83.1 66.6 57% 86 29.95 0.0
15 08:35 S 12 G 18 10.00 Fair CLR 81.5 67.1 62% 84 29.95 0.0
15 08:15 S 9 10.00 Fair CLR 79.7 67.5 66% 82 29.97 0.0
15 07:55 S 10 10.00 Fair CLR 78.3 67.5 70% 80 29.96 0.0
15 07:35 S 8 10.00 Fair CLR 77 67.3 72% 79 29.95 0.0
15 07:15 S 6 10.00 Fair CLR 76.1 67.3 74% 78 29.95 0.0
15 06:55 S 6 10.00 Fair CLR 76.1 67.1 80.4 75.6 74% 78 29.95 0.0
15 06:35 S 7 10.00 Fair CLR 75.9 67.3 75% 77 29.94 0.0
15 06:15 S 7 10.00 Fair CLR 76.1 67.3 74% 78 29.94 0.0
15 05:55 S 7 10.00 Fair CLR 76.1 67.5 75% 78 29.93 0.0
15 05:35 S 7 10.00 Fair CLR 76.3 67.6 75% 78 29.94 0.0
15 05:15 S 6 10.00 Fair CLR 76.3 67.8 75% 78 29.93 0.0
15 04:55 S 7 10.00 Fair CLR 76.8 68 74% 78 29.93 0.0
15 04:35 S 7 10.00 Fair CLR 76.6 68.2 75% 78 29.92 0.0
15 04:15 S 6 10.00 Fair CLR 76.6 68.5 76% 78 29.92 0.0
15 03:55 S 6 10.00 Fair CLR 77 68.9 76% 79 29.92 0.0
15 03:35 S 6 10.00 Fair CLR 77.9 68.9 74% 80 29.92 0.0
15 03:15 S 6 10.00 Fair CLR 77.9 69.1 74% 80 29.93 0.0
15 02:55 S 5 10.00 Fair CLR 78.1 69.3 74% 80 29.93 0.0
15 02:35 S 6 10.00 Fair CLR 78.6 69.4 74% 81 29.94 0.0
15 02:15 S 6 10.00 Fair CLR 79 69.4 73% 82 29.95 0.0
15 01:55 S 6 10.00 Fair CLR 79.7 69.6 71% 83 29.95 0.0
15 01:35 S 6 10.00 Fair CLR 80.1 69.6 71% 83 29.96 0.0
15 01:15 S 5 10.00 Fair CLR 80.2 69.8 71% 83 29.96 0.0
15 00:55 S 5 10.00 Fair CLR 80.6 69.8 95 80.6 70% 84 29.96 0.0
15 00:35 S 7 10.00 Fair CLR 81.5 69.8 68% 85 29.96 0.0
15 00:15 S 7 10.00 Fair CLR 82 69.8 67% 86 29.96 0.0
14 23:55 S 7 10.00 Fair CLR 82.4 69.4 65% 86 29.95 0.0
14 23:35 S 8 10.00 Fair CLR 82.9 69.4 64% 87 29.96 0.0
14 23:15 S 6 10.00 Fair CLR 83.5 69.3 62% 87 29.96 0.0
14 22:55 S 7 10.00 Fair CLR 83.5 69.1 62% 87 29.96 0.0
14 22:35 S 5 10.00 Fair CLR 84.6 69.1 60% 88 29.95 0.0
14 22:15 S 6 10.00 Fair CLR 85.1 69.3 59% 89 29.95 0.0
14 21:55 S 6 10.00 Fair CLR 86 69.1 57% 90 29.95 0.0
14 21:35 S 6 10.00 Fair CLR 86.5 68.9 56% 91 29.95 0.0
14 21:15 S 6 10.00 Fair CLR 86.7 68.4 54% 90 29.95 0.0
14 20:55 S 7 10.00 Fair CLR 88 68 52% 92 29.95 0.0
14 20:35 S 8 10.00 Fair CLR 89.2 68.5 51% 93 29.95 0.0
14 20:15 S 8 10.00 Fair CLR 90.7 68.5 48% 95 29.95 0.0
14 19:55 S 12 10.00 Fair CLR 91.9 68.7 47% 97 29.95 0.0
14 19:35 S 9 10.00 Fair CLR 93.2 68.5 45% 98 29.95 0.0
14 19:15 S 10 G 17 10.00 Fair CLR 94.1 67.6 42% 98 29.95 0.0
14 18:55 S 13 G 17 10.00 Fair CLR 94.8 68.4 97.9 93.4 42% 100 29.95 0.0
14 18:35 S 14 10.00 Fair CLR 95.2 68.4 42% 100 29.95 0.0
14 18:15 S 12 10.00 Fair CLR 95.9 68.5 41% 101 29.95 0.0
14 17:55 S 15 10.00 Fair CLR 95.9 67.5 39% 100 29.95 0.0
14 17:35 SW 14 G 20 10.00 Fair CLR 96.8 65.7 36% 100 29.95 0.0
14 17:15 S 13 G 20 10.00 Fair CLR 97 67.3 38% 102 29.96 0.0
14 16:55 S 16 10.00 Fair CLR 97 66.2 37% 101 29.97 0.0
14 16:35 SW 14 10.00 Fair CLR 96.8 65.3 36% 100 29.97 0.0
14 16:15 SW 14 G 20 10.00 Fair CLR 97 66 36% 101 29.98 0.0
14 15:55 SW 14 G 21 10.00 Fair CLR 97.2 67.1 37% 102 29.98 0.0
14 15:35 SW 12 G 22 10.00 Fair CLR 96.6 66.6 37% 101 29.99 0.0
14 15:15 SW 14 G 22 10.00 Fair CLR 97.2 66.9 37% 101 29.99 0.0
14 14:55 SW 15 G 20 10.00 Fair CLR 96.1 66.9 39% 100 30 0.0
14 14:35 SW 12 10.00 Fair CLR 96.1 68.4 40% 101 30 0.0
14 14:15 S 14 G 18 10.00 Fair CLR 95.4 67.5 40% 100 30 0.0
14 13:55 SW 15 G 18 10.00 Fair CLR 95.2 67.6 41% 100 30.02 0.0
14 13:35 SW 14 G 17 10.00 Fair CLR 94.8 68.4 42% 100 30.02 0.0
14 13:15 S 13 G 18 10.00 Fair CLR 94.5 67.8 42% 99 30.02 0.0
14 12:55 S 10 10.00 Fair CLR 94.1 69.1 94.3 74.3 44% 100 30.03 0.0
14 12:35 S 13 G 21 10.00 Fair CLR 92.7 68.2 45% 97 30.02 0.0
14 12:15 S 14 G 17 10.00 Fair CLR 92.3 68.9 46% 97 30.03 0.0
14 11:55 S 12 G 18 10.00 Fair CLR 90.7 68.9 49% 95 30.04 0.0
14 11:35 S 12 G 17 10.00 Fair CLR 90.1 68.9 50% 95 30.04 0.0
14 11:15 S 10 10.00 Fair CLR 89.1 68.7 51% 93 30.05 0.0
14 10:55 SW 13 10.00 Fair CLR 88.2 68.9 53% 92 30.05 0.0
14 10:35 S 12 10.00 Fair CLR 87.3 68.5 54% 91 30.06 0.0
14 10:15 S 14 10.00 Fair CLR 86.5 69.1 56% 91 30.06 0.0
14 09:55 S 13 G 20 10.00 Fair CLR 85.6 68.9 57% 90 30.07 0.0
14 09:35 S 15 10.00 Fair CLR 84 68.9 61% 88 30.07 0.0
14 09:15 SW 12 G 18 10.00 Fair CLR 82.9 69.3 63% 87 30.07 0.0
14 08:55 S 10 G 17 10.00 Fair CLR 82 69.6 66% 86 30.07 0.0
14 08:35 S 12 G 16 10.00 Fair CLR 80.2 69.8 71% 83 30.07 0.0
14 08:15 S 9 10.00 Fair CLR 78.4 70.7 77% 81 30.07 0.0
14 07:55 S 10 10.00 Fair CLR 76.8 70.9 82% 78 30.07 0.0
14 07:35 S 9 10.00 Fair CLR 75.6 71.1 86% 76 30.08 0.0
14 07:15 S 7 10.00 Fair CLR 74.7 71.2 89% 30.07 0.0
14 06:55 S 7 10.00 Fair CLR 74.3 71.2 79.7 73.8 90% 30.06 0.0
14 06:35 S 5 10.00 Fair CLR 73.9 71.1 91% 30.06 0.0
14 06:15 S 6 10.00 Fair CLR 74.3 70.9 89% 30.06 0.0
14 05:55 S 6 10.00 Fair CLR 74.7 70.2 86% 30.06 0.0
14 05:35 S 5 10.00 Fair CLR 75.2 69.8 83% 75 30.06 0.0
14 05:15 S 6 10.00 Fair CLR 75.2 69.4 82% 76 30.05 0.0
14 04:55 S 5 10.00 Fair CLR 75.6 69.1 80% 76 30.05 0.0
14 04:35 S 5 10.00 Fair CLR 76.1 68.9 78% 77 30.05 0.0
14 04:15 S 6 10.00 Fair CLR 76.1 68.9 78% 77 30.05 0.0
14 03:55 S 7 10.00 Fair CLR 76.5 68.5 77% 78 30.05 0.0
14 03:35 S 8 10.00 Fair CLR 77 68.4 75% 79 30.05 0.0
14 03:15 S 8 10.00 Fair CLR 77.4 68.4 74% 79 30.05 0.0
14 02:55 S 9 10.00 Fair CLR 77.9 68 72% 80 30.05 0.0
14 02:35 S 6 10.00 Fair CLR 77.9 67.8 71% 80 30.06 0.0
14 02:15 S 7 10.00 Fair CLR 78.3 67.5 70% 80 30.07 0.0
14 01:55 S 7 10.00 Fair CLR 78.8 67.1 67% 81 30.07 0.0
14 01:35 S 8 10.00 Fair CLR 79.3 67.1 66% 82 30.07 0.0
14 01:15 S 7 10.00 Fair CLR 79.7 66.7 65% 82 30.07 0.0
14 00:55 S 7 10.00 Fair CLR 79.7 66.9 91.4 78.6 65% 82 30.08 0.0
14 00:35 S 5 10.00 Fair CLR 79.3 67.1 66% 82 30.08 0.0
14 00:15 S 6 10.00 Fair CLR 81 67.1 63% 83 30.08 0.0
13 23:55 S 8 10.00 Fair CLR 81.9 66.6 60% 84 30.07 0.0
13 23:35 S 8 10.00 Fair CLR 81.9 66.9 61% 84 30.07 0.0
13 23:15 S 6 10.00 Fair CLR 81.5 67.3 62% 84 30.07 0.0
13 22:55 S 6 10.00 Fair CLR 81.1 67.3 63% 84 30.07 0.0
13 22:35 S 3 10.00 Fair CLR 78.6 66.4 66% 81 30.08 0.0
13 22:15 Calm 10.00 Fair CLR 79.9 66 63% 82 30.08 0.0
13 21:55 S 5 10.00 Fair CLR 82.6 64.9 55% 84 30.07 0.0
13 21:35 S 3 10.00 Fair CLR 81.9 64.6 56% 84 30.07 0.0
13 21:15 S 5 10.00 Fair CLR 84.6 63.9 50% 86 30.07 0.0
13 20:55 S 6 10.00 Fair CLR 85.6 63.5 48% 87 30.07 0.0
13 20:35 S 6 10.00 Fair CLR 86.9 63.5 46% 88 30.06 0.0
13 20:15 S 7 10.00 Fair CLR 87.8 63.7 45% 89 30.06 0.0
13 19:55 S 8 10.00 Fair CLR 88.7 64.8 45% 90 30.06 0.0
13 19:35 S 9 10.00 Fair CLR 90.3 64.6 43% 92 30.06 0.0
13 19:15 S 9 10.00 Fair CLR 90.9 64.8 42% 93 30.06 0.0
13 18:35 S 9 10.00 Fair CLR 90.5 63.7 41% 92 30.05 0.0
13 18:15 S 10 G 18 10.00 Fair CLR 90.9 63.5 40% 92 30.05 0.0
13 17:55 S 12 G 18 10.00 Fair CLR 91.6 64.2 40% 93 30.06 0.0
13 17:35 S 10 10.00 Fair CLR 92.7 64.9 40% 95 30.06 0.0
13 17:15 S 14 G 22 10.00 Fair CLR 94.1 64.8 38% 96 30.05 0.0
13 16:55 S 17 G 22 10.00 Fair CLR 94.6 63.1 35% 96 30.06 0.0
13 16:35 S 15 G 23 10.00 Fair CLR 93.4 63.3 37% 95 30.07 0.0
13 16:15 S 12 G 17 10.00 Fair CLR 94.6 63 35% 96 30.08 0.0
13 15:55 S 9 G 17 10.00 Fair CLR 95 62.6 34% 96 30.09 0.0
13 15:35 S 10 G 16 10.00 Fair CLR 92.3 61.9 36% 93 30.1 0.0
13 15:15 S 9 G 17 10.00 Fair CLR 93.2 62.4 36% 94 30.1 0.0
13 14:55 SW 13 G 18 10.00 Fair CLR 94.8 61.9 34% 96 30.1 0.0
13 14:35 S 10 10.00 Fair CLR 94.1 61.5 34% 95 30.1 0.0
13 14:15 S 13 G 16 10.00 Fair CLR 93.4 61.7 35% 94 30.11 0.0
13 13:55 S 15 G 21 10.00 Fair CLR 92.8 61.5 35% 93 30.11 0.0
13 13:35 S 10 G 18 10.00 Fair CLR 92.5 61.9 36% 93 30.11 0.0
13 13:15 S 13 G 18 10.00 Fair CLR 91.6 62.4 38% 92 30.11 0.0
13 12:55 S 14 G 17 10.00 Fair CLR 91.8 64.4 91.9 74.8 40% 94 30.12 0.0
13 12:35 S 10 G 16 10.00 Fair CLR 90.7 63.7 41% 92 30.13 0.0
13 12:15 S 7 G 17 10.00 Fair CLR 90.7 64 41% 92 30.13 0.0
13 11:55 S 8 10.00 Fair CLR 90 64.2 43% 91 30.14 0.0
13 11:35 S 10 10.00 Fair CLR 88.7 64.8 45% 90 30.14 0.0
13 11:15 S 9 G 16 10.00 Fair CLR 87.6 65.3 48% 90 30.13 0.0
13 10:55 S 8 10.00 Fair CLR 86.4 66.2 51% 89 30.14 0.0
13 10:35 S 6 10.00 Fair CLR 84.9 66.6 54% 87 30.14 0.0
13 10:15 SE 6 10.00 Fair CLR 84.7 67.3 56% 88 30.14 0.0
13 09:55 S 8 10.00 Fair CLR 83.1 67.5 59% 86 30.14 0.0
13 09:35 S 12 10.00 Fair CLR 82.6 67.5 60% 85 30.13 0.0
13 09:15 S 13 10.00 Fair CLR 81.5 67.1 62% 84 30.13 0.0
13 08:55 SW 10 10.00 Fair CLR 80.6 67.1 64% 83 30.13 0.0
13 08:35 S 13 10.00 Fair CLR 79.7 67.1 65% 82 30.13 0.0
13 08:15 S 12 10.00 Fair CLR 78.3 67.1 69% 80 30.12 0.0
13 07:55 S 7 10.00 Fair CLR 77 67.1 72% 79 30.12 0.0
13 07:35 S 7 10.00 Fair CLR 75.7 67.1 75% 77 30.11 0.0
13 07:15 S 7 10.00 Fair CLR 75.2 67.1 76% 76 30.11 0.0
13 06:55 S 7 10.00 Fair CLR 74.8 67.3 79 74.3 77% 30.1 0.0
13 06:35 S 12 10.00 Fair CLR 74.8 67.3 77% 30.09 0.0
13 06:15 S 9 10.00 Fair CLR 75 67.5 77% 76 30.09 0.0
13 05:55 S 8 10.00 Fair CLR 75 67.5 77% 76 30.08 0.0
13 05:35 S 8 10.00 Fair CLR 74.8 67.5 78% 30.08 0.0
13 05:15 S 7 10.00 Fair CLR 75.2 67.3 77% 76 30.08 0.0
13 04:55 S 7 10.00 Fair CLR 75.6 67.1 75% 77 30.07 0.0
13 04:35 S 6 10.00 Fair CLR 74.7 66.9 77% 30.06 0.0
13 04:15 S 6 10.00 Fair CLR 74.8 66.7 76% 30.05 0.0
13 03:55 SW 3 10.00 Fair CLR 74.8 66.6 76% 30.05 0.0
13 03:35 S 6 10.00 Fair CLR 76.3 66.4 72% 78 30.04 0.0
13 03:15 S 7 10.00 Fair CLR 76.3 66.4 72% 78 30.04 0.0
13 02:55 S 6 10.00 Fair CLR 76.6 66.2 70% 78 30.04 0.0
13 02:35 S 6 10.00 Fair CLR 76.6 66.2 70% 78 30.04 0.0
13 02:15 S 6 10.00 Fair CLR 77.9 65.8 67% 80 30.04 0.0
13 01:55 S 6 10.00 Fair CLR 78.1 65.8 66% 80 30.04 0.0
13 01:35 S 6 10.00 Fair CLR 78.3 65.8 66% 80 30.05 0.0
13 01:15 S 5 10.00 Fair CLR 78.8 65.8 65% 81 30.05 0.0
13 00:55 S 6 10.00 Fair CLR 79 65.7 92.3 77.5 64% 81 30.05 0.0
13 00:35 S 6 10.00 Fair CLR 79.7 65.5 62% 82 30.05 0.0
13 00:15 S 5 10.00 Fair CLR 77.5 66.2 68% 79 30.05 0.0
12 23:55 S 6 10.00 Fair CLR 79.3 65.7 63% 81 30.05 0.0
12 23:35 S 6 10.00 Fair CLR 79.7 65.8 63% 82 30.04 0.0
12 23:15 S 5 10.00 Fair CLR 80.8 65.7 60% 83 30.04 0.0
12 22:55 S 7 10.00 Fair CLR 82 65.7 58% 84 30.03 0.0
12 22:35 S 6 10.00 Fair CLR 82.9 65.7 56% 85 30.03 0.0
12 22:15 S 6 10.00 Fair CLR 83.1 65.7 56% 85 30.03 0.0
12 21:55 S 6 10.00 Fair CLR 83.8 65.8 55% 86 30.02 0.0
12 21:35 S 6 10.00 Fair CLR 84.6 66.2 54% 87 30.02 0.0
12 21:15 S 7 10.00 Fair CLR 85.1 66.4 54% 88 30.01 0.0
12 20:55 S 5 10.00 Fair CLR 85.6 65.7 51% 88 30.01 0.0
12 20:35 S 6 10.00 Fair CLR 87.4 64.6 47% 89 30 0.0
12 20:15 S 6 10.00 Fair CLR 88.7 63.9 44% 90 30 0.0
12 19:55 S 8 10.00 Fair CLR 90 62.8 40% 91 30 0.0
12 19:35 S 10 10.00 Fair CLR 91 62.4 39% 92 30 0.0
12 19:15 S 12 G 16 10.00 Fair CLR 91.9 63.7 39% 93 29.99 0.0
12 18:55 S 12 10.00 Fair CLR 92.5 64 95.2 91.6 39% 94 29.99 0.0
12 18:35 S 10 G 18 10.00 Fair CLR 93 65.1 40% 95 29.98 0.0
12 18:15 S 15 G 18 10.00 Fair CLR 93.6 65.3 39% 96 29.98 0.0
12 17:55 S 20 G 23 10.00 Fair CLR 93.9 64.6 38% 96 29.98 0.0
12 17:35 S 13 10.00 Fair CLR 94.6 66.4 40% 98 29.98 0.0
12 17:15 S 15 10.00 Fair CLR 95.2 64.8 37% 98 29.99 0.0
12 16:55 S 13 G 22 10.00 Fair CLR 94.6 64.4 37% 97 29.99 0.0
12 16:35 S 16 G 26 10.00 Fair CLR 95 66.2 39% 98 29.99 0.0
12 16:15 S 15 G 25 10.00 Fair CLR 95 66.2 39% 98 29.99 0.0
12 15:55 S 10 G 18 10.00 Fair CLR 94.3 68 42% 99 30 0.0
12 15:35 S 15 G 21 10.00 Fair CLR 94.5 68 42% 99 30 0.0
12 15:15 S 15 G 24 10.00 Fair CLR 93.6 68.2 44% 98 30 0.0
12 14:55 S 17 G 23 10.00 Fair CLR 93.6 67.5 42% 98 30.02 0.0
12 14:35 S 18 G 25 10.00 Fair CLR 92.7 67.3 43% 96 30.02 0.0
12 14:15 S 20 G 26 10.00 Fair CLR 92.5 66.4 42% 96 30.02 0.0
12 13:55 S 18 G 25 10.00 Fair CLR 92.7 66.2 42% 96 30.03 0.0
12 13:35 S 21 G 24 10.00 Fair and Breezy CLR 92.7 66.4 42% 96 30.04 0.0
12 13:15 S 18 G 24 10.00 Fair CLR 92.1 66.6 43% 95 30.04 0.0
12 12:55 S 18 G 22 10.00 Fair CLR 91.9 67.5 92.7 74.5 45% 96 30.05 0.0
Date Time (cdt) Wind (mph) Vis. (mi.) Weather Sky Cond. Air Dwpt Max. Min. Relative Humidity Wind Chill (°F) Heat Index (°F) altimeter (in) sea level (mb) 1 hr 3 hr 6 hr
6 hour
Temperature (ºF) Pressure Precipitation (in)